Regional Weather Roundup
Issued by NWS

Home | Current Version | Previous Version | Graphics & Text | Print | Product List | Glossary On
Versions: 1 2 3 4 5 6 7 8 9 10 11 12 13 14 15 16 17 18 19 20 21 22 23 24 25 26 27 28 29 30 31 32 33 34 35 36 37 38 39 40 41 42 43 44 45 46 47 48 49 50
000
ASUS43 KDTX 011501
RWRMI
MICHIGAN HOURLY REGIONAL WEATHER ROUNDUP
NATIONAL WEATHER SERVICE DETROIT/PONTIAC MI
1100 AM EDT SAT AUG 01 2015

NOTE: "FAIR" INDICATES FEW OR NO CLOUDS BELOW 12,000 FEET WITH NO
SIGNIFICANT WEATHER AND/OR OBSTRUCTION TO VISIBILITY.

MIZ047>049-052>055-059>063-066>070-074>076-081>083-011600-
SOUTHEAST LOWER MICHIGAN

CITY           SKY/WX    TMP DP  RH WIND       PRES   REMARKS
ADRIAN         SUNNY     76  56  49 NW10      29.96S
ALMA           SUNNY     75  58  53 SW9G16    29.91F
ANN ARBOR      SUNNY     76  56  49 NW10      29.94S
BAD AXE        PTSUNNY   73  60  65 W10       29.89S
CARO           SUNNY     75  58  55 W9        29.89F
DETROIT CITY   SUNNY     77  54  44 W10       29.92F
DETROIT        MOSUNNY   78  57  48 W10       29.94S
FLINT          SUNNY     78  55  44 W9        29.92F
GROSSE ILE     SUNNY     79  57  47 W6        29.92S
HILLSDALE      SUNNY     76  56  51 W8        29.98S
HOWELL         SUNNY     76  55  48 W9        29.94F

CITY           SKY/WX    TMP DP  RH WIND       PRES   REMARKS
JACKSON        SUNNY     75  57  53 W8        29.96F
LAMBERTVILLE   SUNNY     76  61  58 W6        29.96S
LANSING        SUNNY     76  56  49 W12       29.94F
LAPEER         FAIR      74  56  53 W8        29.91F
MASON          SUNNY     74  55  51 W9        29.94F
MONROE         SUNNY     76  60  57 NW7       29.94S
MT. CLEMENS    MOSUNNY   77  56  46 NW12      29.89F
PONTIAC        MOSUNNY   75  56  51 W10       29.92F
PORT HOPE        N/A     74  60  61 VRB6      29.86S
PORT HURON     SUNNY     73  57  56 W5        29.91S
TRI CITIES     SUNNY     76  57  51 W13       29.90F
MIDLAND        FAIR      77  56  48 W13       29.88F
TROY           SUNNY     77  54  44 NW12      29.94S
SAGINAW HB     SUNNY     77  55  47 W9        29.89S
$$
MIZ043>046-050>051-056>058-064>065-071>073-077>080-011600-
SOUTHWEST LOWER MICHIGAN

CITY           SKY/WX    TMP DP  RH WIND       PRES   REMARKS
BATTLE CREEK   MOSUNNY   78  57  48 W12       29.97F
BENTON HARBOR  SUNNY     76  60  57 W10       29.98S
BIG RAPIDS     SUNNY     74  59  59 W8G17     29.91F
COLDWATER      SUNNY     76  55  47 W12       29.97F
FREMONT        FAIR      76  54  46 W9        29.93S
HOLLAND        SUNNY     76  60  57 VRB7      29.96S
GRAND RAPIDS   MOSUNNY   77  57  50 W8        29.94F
IONIA          FAIR      77  58  52 W10       29.93S
KALAMAZOO      SUNNY     77  58  51 W10       29.97S
LUDINGTON      SUNNY     72  61  67 W6        29.92S
MARSHALL       SUNNY     77  58  51 W13       29.95F
MOUNT PLEASANT SUNNY     79  58  48 W7        29.89F
MUSKEGON       MOSUNNY   76  59  55 W10       29.94S
SOUTH HAVEN    SUNNY     75  60  59 W9        29.97S
$$
MIZ016>042-011600-
NORTHERN LOWER MICHIGAN

CITY           SKY/WX    TMP DP  RH WIND       PRES   REMARKS
ALPENA         PTSUNNY   75  58  55 NW7       29.85S
BEAVER ISLAND  SUNNY     70  58  66 W8        29.86S
BELLAIRE       MOSUNNY   72  57  59 W3        29.87F
CADILLAC       SUNNY     75  54  48 W7        29.90F
CHARLEVOIX     MOSUNNY   70  60  70 W8        29.89F
FRANKFORT      SUNNY     72  62  71 W10       29.89S
GAYLORD        MOSUNNY   71  55  56 W14G20    29.88S
GRAYLING       MOSUNNY   72  57  58 W13G18    29.89S
HARBOR SPRINGS SUNNY     71  60  69 SW7       29.86S
HOUGHTON LAKE  SUNNY     72  56  57 W13       29.90F
MANISTEE       MOSUNNY   70  57  64 W7        29.92S
OSCODA         MOSUNNY   77  55  45 W12       29.85S
PELLSTON       SUNNY     72  57  59 W8        29.85F
ROGERS CITY    MOSUNNY   73  60  63 W8        29.85F
TRAVERSE CITY  MOSUNNY   77  55  46 NW12      29.85F
$$
MIZ007>008-015-011600-
EASTERN UPPER MICHIGAN

CITY           SKY/WX    TMP DP  RH WIND       PRES   REMARKS
KINROSS        MOSUNNY   70  57  64 NW5       29.83S
MACKINAC ISLAN   N/A     68  58  71 SW6       29.84S
NEWBERRY       SUNNY     70  57  64 W6        29.84S
S. S. MARIE    MOSUNNY   66  57  72 NW8       29.82F
MUNISING         N/A     71  56  58 NW14      29.85S
$$
MIZ004>006-011>014-085-011600-
CENTRAL UPPER MICHIGAN

CITY           SKY/WX    TMP DP  RH WIND       PRES   REMARKS
ESCANABA       SUNNY     73  55  53 W14       29.85S
MENOMINEE      SUNNY     72  55  56 W6        29.89R
SAWYER-GWINN   MOSUNNY   72  52  49 W8G17     29.87S
$$
MIZ001>003-009>011-084-011600-
WESTERN UPPER MICHIGAN

CITY           SKY/WX    TMP DP  RH WIND       PRES   REMARKS
IRON MOUNTAIN  SUNNY     71  53  52 W14       29.89S
HOUGHTON       SUNNY     68  55  63 W12       29.87S
COPPER HARBOR    N/A     70  55  59 N14G20    29.83S
IRONWOOD       SUNNY     68  55  64 NW12      29.90S
$$

ABBREVIATIONS USED IN REMARKS
   TC - TEMPERATURE IN CELSIUS
  WCI - WIND CHILL INDEX
   HX - HEAT INDEX
  VSB - VISIBILITY




USA.gov is the U.S. government's official web portal to all federal, state and local government web resources and services.